Weather in Tsu

Japan     34°42′37″N   136°30′16″E
temp.,
°C
wind,
m/s
gust,
m/s
humid.,
%
clouds,
%
prec.,
mm/h
press.,
hPa
HPBL,
m
28 november, sun
sun2800:00+7wnw597013 0.0 1031534
03:00+7wnw47665 0.0 1030427
06:00+5wnw35742 0.0 1031141
09:00+9n35560 0.0 1032785
12:00+11nnw13430 0.0 1031993
15:00+12nw45410 0.0 10301009
18:00+8wnw35620 0.0 1031136
21:00+6wnw34680 0.0 1032121
29 november, mon
mon2900:00+6wnw226912 0.0 1032101
03:00+5wnw226993 0.0 103287
06:00+5nnw1269100 0.0 1031148
09:00+8nnw1160100 0.0 1032275
12:00+11e114976 0.0 1030584
15:00+12ene224819 0.0 1028326
18:00+9wsw115412 0.0 1029184
21:00+8wnw22666 0.0 102970
30 november, tue
tue3000:00+7wnw21650 0.0 102970
03:00+7nw11620 0.0 102796
06:00+6wnw22650 0.0 102685
09:00+9ne125996 0.0 1025269
12:00+12e2362100 0.0 1023550
15:00+15se7107299 0.1 10161226
18:00+14s3983100 0.4 1015561
21:00+16sse71479100 1.0 10131132
1 december, wed
wed100:00+17s101983100 1.0 10081348
03:00+15sw2796100 17.3 1002551
06:00+11w12177519 10.1 1006951
09:00+9wnw914675 10.1 10101379
12:00+10wnw814556 0.0 10091933
15:00+10wnw715493 0.0 10091997
18:00+7wnw916550 0.0 10121486
21:00+6wnw916611 0.0 10141158
2 december, thu
thu200:00+5wnw613645 0.0 10161104
03:00+5wnw612675 0.0 1017866
06:00+4wnw411706 0.0 1018500
09:00+7wnw48633 0.0 1019643
12:00+10wnw57505 0.0 10171293
15:00+10wnw58520 0.0 10181245
18:00+7w46680 0.0 1019436
21:00+6w33750 0.0 102099